Weather History for Peterborough, ON

Change the Weather History Date:

Saturday, October 5, 2013

  Actual Average Record
Temperature  
Mean Temperature 37 °F -  
Max Temperature 64 °F 52 °F 78 °F (2007)
Min Temperature 10 °F 33 °F 10 °F (2013)
Degree Days  
Heating Degree Days 28    
Moisture  
Dew Point 50 °F    
Average Humidity 88    
Maximum Humidity 100    
Minimum Humidity 49    
Precipitation  
Precipitation 0.00 in 0.09 in - ()
Sea Level Pressure  
Sea Level Pressure 30.12 in    
Wind  
Wind Speed 4 mph ()    
Max Wind Speed 10 mph    
Max Gust Speed -    
Visibility 7.9 miles    
Events Rain    
Averages and records for this station are not official NWS values.
T = Trace of Precipitation, MM = Missing Value Source: Averaged Metar Reports

Daily Weather History Graph

Daily Weather History Graph

Search for Another Location

Airport:

Trip Planner

Search our weather history database for the weather conditions in past years. The results will help you decide how hot, cold, wet, or windy it might be!

Date:

Astronomy

Oct. 05, 2013 Rise Set
Actual Time 7:16 AM EDT 6:46 PM EDT
Civil Twilight 6:47 AM EDT 7:15 PM EDT
Nautical Twilight 6:13 AM EDT 7:48 PM EDT
Astronomical Twilight 5:39 AM EDT 8:22 PM EDT
Moon 7:56 AM EDT (10/5) 7:00 PM EDT (10/5)
Length of Visible Light 12h 28m
Length of Day
11h 30m
New Moon, 0% of the Moon is Illuminated
Oct 5
New Moon
Oct 11
First Quarter
Oct 18
Full
Oct 26
Last Quarter
Nov 3
New

Hourly Weather History & Observations

Time (EDT) Temp. Dew Point Humidity Pressure Visibility Wind Dir Wind Speed Gust Speed Precip Events Conditions
12:00 AM 55.4 °F 55.4 °F 100% 30.11 in 9.0 mi NE 4.6 mph - N/A Rain Light Rain
12:12 AM 55.4 °F 55.4 °F 100% 30.12 in 5.0 mi North 4.6 mph - N/A Rain Rain
12:18 AM 55.4 °F 55.4 °F 100% 30.12 in 4.0 mi Calm Calm - N/A Rain Heavy Rain
12:21 AM 55.4 °F 55.4 °F 100% 30.11 in 2.5 mi NE 4.6 mph - N/A Rain Heavy Rain
12:24 AM 55.4 °F 55.4 °F 100% 30.11 in 2.0 mi Variable 6.9 mph - N/A Rain Heavy Rain
12:30 AM 55.4 °F 55.4 °F 100% 30.11 in 2.0 mi NE 2.3 mph - N/A Rain Light Rain
12:31 AM 55.4 °F 55.4 °F 100% 30.12 in 2.5 mi Variable 2.3 mph - N/A Rain Light Rain
12:34 AM 55.4 °F 55.4 °F 100% 30.12 in 3.0 mi Variable 2.3 mph - N/A Rain Light Rain
12:37 AM 55.4 °F 55.4 °F 100% 30.12 in 7.0 mi Variable 2.3 mph - N/A Rain Light Rain
12:45 AM 55.4 °F 55.4 °F 100% 30.12 in 9.0 mi Variable 2.3 mph - N/A Rain Light Rain
1:00 AM 53.6 °F 53.6 °F 100% 30.11 in 9.0 mi NE 5.8 mph - N/A Rain Light Rain
1:15 AM 55.4 °F 55.4 °F 100% 30.11 in 9.0 mi Calm Calm - N/A   Overcast
1:18 AM 55.4 °F 55.4 °F 100% 30.11 in 9.0 mi Calm Calm - N/A Rain Light Rain
1:45 AM 53.6 °F 53.6 °F 100% 30.12 in 9.0 mi Variable 2.3 mph - N/A   Overcast
2:00 AM 13 °F 11 °F 85% 30.22 in - NNE 6.9 mph - -  
2:00 AM 53.6 °F 53.6 °F 100% 30.12 in 9.0 mi NE 4.6 mph - N/A   Overcast
3:00 AM 53.6 °F 53.6 °F 100% 30.12 in 9.0 mi NNE 4.6 mph - N/A   Overcast
3:38 AM 53.6 °F 53.6 °F 100% 30.11 in 9.0 mi NNE 5.8 mph - N/A   Overcast
4:00 AM 53.6 °F 53.6 °F 100% 30.12 in 9.0 mi NNE 3.5 mph - N/A Rain Light Rain
4:12 AM 53.6 °F 53.6 °F 100% 30.12 in 9.0 mi NE 4.6 mph - N/A   Overcast
4:18 AM 53.6 °F 53.6 °F 100% 30.12 in 9.0 mi NE 4.6 mph - N/A   Overcast
5:00 AM 53.6 °F 53.6 °F 100% 30.12 in 9.0 mi NE 5.8 mph - N/A   Overcast
6:00 AM 53.6 °F 53.6 °F 100% 30.13 in 9.0 mi NE 3.5 mph - N/A   Overcast
7:00 AM 53.6 °F 53.6 °F 100% 30.13 in 9.0 mi NE 4.6 mph - N/A   Overcast
8:00 AM 12 °F 10 °F 87% 30.15 in - NNE 4.6 mph - -  
8:00 AM 53.6 °F 53.6 °F 100% 30.14 in 9.0 mi NNE 3.5 mph - N/A   Overcast
9:00 AM 55.4 °F 53.6 °F 94% 30.14 in 9.0 mi NNE 4.6 mph - N/A   Overcast
10:00 AM 57.2 °F 53.6 °F 88% 30.15 in 9.0 mi NE 4.6 mph - N/A   Overcast
11:00 AM 57.2 °F 53.6 °F 88% 30.15 in 9.0 mi NE 8.1 mph - N/A   Overcast
12:00 PM 60.8 °F 50.0 °F 68% 30.14 in 9.0 mi ENE 8.1 mph - N/A   Overcast
1:00 PM 62.6 °F 48.2 °F 59% 30.12 in 9.0 mi ENE 5.8 mph - N/A   Overcast
2:00 PM 64.4 °F 44.6 °F 49% 30.10 in 9.0 mi ENE 10.4 mph - N/A   Overcast
3:00 PM 64.4 °F 48.2 °F 56% 30.11 in 9.0 mi ENE 6.9 mph - N/A   Overcast
4:00 PM 64.4 °F 50.0 °F 59% 30.10 in 9.0 mi NE 8.1 mph - N/A   Overcast
5:00 PM 62.6 °F 48.2 °F 59% 30.09 in 9.0 mi NE 6.9 mph - N/A   Overcast
6:00 PM 60.8 °F 46.4 °F 59% 30.07 in 9.0 mi East 5.8 mph - N/A   Overcast
6:55 PM 59.0 °F 48.2 °F 67% 30.09 in 9.0 mi NE 4.6 mph - N/A Rain Light Rain
7:00 PM 59.0 °F 48.2 °F 67% 30.09 in 9.0 mi NE 3.5 mph - N/A Rain Light Rain
7:17 PM 57.2 °F 50.0 °F 77% 30.10 in 9.0 mi NNE 6.9 mph - N/A   Overcast
8:00 PM 57.2 °F 48.2 °F 72% 30.09 in 9.0 mi ENE 3.5 mph - N/A   Scattered Clouds
9:00 PM 53.6 °F 51.8 °F 94% 30.11 in 9.0 mi Calm Calm - N/A   Mostly Cloudy
10:00 PM 51.8 °F 50.0 °F 94% 30.11 in 9.0 mi NE 3.5 mph - N/A   Partly Cloudy
11:00 PM 53.6 °F 48.2 °F 82% 30.10 in 9.0 mi NE 2.3 mph - N/A   Clear